[[{"header":{"parameterUnit":"m.s-1","parameterCategory":1,"la1":30.2991,"la2":30.254,"lo1":-89.0895,"lo2":-89.0444,"dy":0.0017,"dx":0.0017,"nx":28,"ny":28,"refTime":"2024-04-30T09:00:00:Z","depth":0,"parameterNumber":2,"parameterNumberName":"U-component_of_WINDS"},"data":[0,0,0,0,0,0,0,0,0,0,0,0,0,0,0,0,0,0,0,0,0,0,0,0,0,0,0,0,0,0,0,0,0,0,0,0,0,0,0,0,0,0,0,0,0,0,0,0,0,0,0,0,0,0,0,0,0,0,-1.8049,-1.8049,0,-1.8058,-1.8058,-1.8058,-1.8029,-1.8028,-1.8027,-1.8026,-1.8036,-1.8037,-1.8038,0,0,0,0,0,0,0,0,0,0,0,0,0,-1.8007,-1.8008,-1.8049,-1.8049,-1.8049,-1.8058,-1.8058,-1.8058,-1.8029,-1.8028,-1.8027,-1.8026,-1.8035,-1.8037,-1.8038,0,0,0,0,0,0,0,0,0,0,0,0,0,-1.8022,-1.8008,-1.8049,-1.8036,-1.8035,-1.8058,-1.8058,-1.8058,-1.8029,-1.8028,-1.8027,-1.8026,-1.8035,-1.8037,-1.8038,-1.8075,0,0,-1.8043,-1.8044,0,0,0,0,0,0,0,0,-1.8021,-1.8023,-1.8038,-1.8037,-1.8036,-1.8041,-1.8047,-1.8064,-1.803,-1.8031,-1.8026,-1.8025,-1.8039,-1.804,-1.8044,-1.8075,-1.8075,-1.8043,-1.8044,-1.8045,-1.8045,0,0,0,0,0,0,0,-1.802,-1.8023,-1.8053,-1.8038,-1.8037,-1.803,-1.803,-1.805,-1.8042,-1.8031,-1.8029,-1.8031,-1.8038,-1.8043,-1.8044,-1.8075,-1.8043,-1.8045,-1.8046,-1.8046,-1.8136,-1.8137,0,0,0,0,0,0,-1.8021,-1.8022,-1.8052,-1.8053,-1.8025,-1.8031,-1.8032,-1.8041,-1.8042,-1.8041,-1.8032,-1.8029,-1.8041,-1.8043,-1.8045,-1.8087,-1.8045,-1.8046,-1.8047,-1.8135,-1.8136,-1.8138,0,0,0,0,0,0,-1.802,-1.8024,-1.8052,-1.8037,-1.804,-1.8033,-1.8043,-1.8041,-1.8047,-1.8042,-1.8041,-1.8038,-1.804,-1.8042,-1.8067,-1.8087,-1.8047,-1.8049,-1.8133,-1.8135,-1.8137,-1.8172,0,0,0,0,0,0,-1.8019,-1.8023,-1.8037,-1.8037,-1.8041,-1.8074,-1.8045,-1.8043,-1.8049,-1.8046,-1.8048,-1.8047,-1.8039,-1.8065,-1.8069,-1.8088,-1.805,-1.8131,-1.8134,-1.8136,-1.8169,-1.8175,-1.818,0,0,0,0,0,-1.8017,-1.8047,-1.8038,-1.8042,-1.8058,-1.8076,-1.8078,-1.8067,-1.8051,-1.8065,-1.8062,-1.8047,-1.8084,-1.8068,-1.8072,-1.8092,-1.813,-1.8133,-1.8136,-1.8167,-1.8174,-1.818,0,0,0,0,0,0,-1.8049,-1.8047,-1.8037,-1.8067,-1.8072,-1.8071,-1.8088,-1.8076,-1.8085,-1.8082,-1.8069,-1.8069,-1.8097,-1.8097,-1.8079,-1.8127,-1.8104,-1.8108,-1.8126,-1.8133,-1.8138,-1.8138,-1.8051,0,0,0,0,0,-1.806,-1.8074,-1.8071,-1.8098,-1.8101,-1.8094,-1.8101,-1.8093,-1.8098,-1.8099,-1.8098,-1.8103,-1.8116,-1.8125,-1.8136,-1.8169,-1.8169,-1.8185,-1.8191,-1.8196,-1.8199,-1.8217,-1.8224,-1.8148,-1.8148,-1.8148,0,0,-1.8082,-1.8082,-1.8092,-1.8105,-1.8107,-1.8123,-1.8096,-1.8113,-1.8125,-1.8102,-1.8125,-1.8125,-1.8129,-1.8159,-1.8171,-1.816,-1.822,-1.82,-1.8203,-1.8204,-1.8221,-1.8228,-1.8234,-1.8151,-1.815,-1.815,0,0,-1.8129,-1.8131,-1.8154,-1.8157,-1.8161,-1.8156,-1.8162,-1.8163,-1.8161,-1.8185,-1.8168,-1.8181,-1.8203,-1.8207,-1.8212,-1.8261,-1.8248,-1.8265,-1.8294,-1.8312,-1.8317,-1.8323,-1.834,-1.8346,-1.8269,-1.8269,-1.8269,0,-1.8156,-1.8178,-1.8167,-1.8185,-1.8192,-1.8172,-1.8195,-1.8198,-1.8206,-1.8211,-1.8198,-1.8225,-1.8227,-1.8256,-1.8268,-1.8273,-1.8279,-1.8265,-1.8318,-1.8323,-1.8327,-1.8344,-1.835,-1.8271,-1.8271,-1.8271,-1.8271,0,-1.8211,-1.8227,-1.8244,-1.8252,-1.826,-1.8281,-1.8273,-1.8282,-1.8274,-1.827,-1.8294,-1.8295,-1.8307,-1.8313,-1.8305,-1.8342,-1.8334,-1.832,-1.8296,-1.8337,-1.8352,-1.8358,-1.8274,-1.8274,-1.8273,-1.8272,0,0,-1.8278,-1.828,-1.8286,-1.829,-1.8293,-1.8305,-1.8325,-1.8336,-1.8344,-1.835,-1.8366,-1.8386,-1.8372,-1.8378,-1.837,-1.8385,-1.8423,-1.8368,-1.8368,-1.8378,-1.8464,-1.8474,-1.8482,-1.8415,-1.8416,-1.8417,-1.8463,0,-1.8325,-1.8358,-1.8349,-1.8383,-1.8397,-1.8378,-1.8396,-1.84,-1.8397,-1.8409,-1.8406,-1.842,-1.8401,-1.8404,-1.8418,-1.8416,-1.844,-1.8412,-1.8429,-1.843,-1.8428,-1.849,-1.8501,-1.8545,-1.8469,-1.847,-1.8471,0,-1.8384,-1.8392,-1.8427,-1.8428,-1.8433,-1.8449,-1.8458,-1.847,-1.8474,-1.8471,-1.8477,-1.8466,-1.8485,-1.8462,-1.8489,-1.847,-1.8476,-1.8476,-1.8478,-1.8478,-1.8452,-1.8492,-1.8558,-1.8565,-1.848,-1.8479,-1.8479,0,-1.8429,-1.8449,-1.8472,-1.8476,-1.8477,-1.8489,-1.849,-1.8493,-1.85,-1.8508,-1.8512,-1.8523,-1.8529,-1.8537,-1.8529,-1.8513,-1.8557,-1.8533,-1.8554,-1.8555,-1.8564,-1.8564,-1.8632,-1.8569,-1.8569,-1.8569,-1.8569,0,-1.8482,-1.8504,-1.8493,-1.8507,-1.8531,-1.852,-1.8544,-1.8544,-1.8546,-1.856,-1.8545,-1.8558,-1.8547,-1.856,-1.8554,-1.8576,-1.8579,-1.8577,-1.8575,-1.8578,-1.8579,-1.8582,-1.8579,-1.8571,-1.857,-1.857,-1.857,0,-1.8536,-1.853,-1.8554,-1.8553,-1.8554,-1.8572,-1.8571,-1.8584,-1.8581,-1.8599,-1.8602,-1.8597,-1.861,-1.8603,-1.8618,-1.8614,-1.8643,-1.8637,-1.8641,-1.864,-1.8662,-1.866,-1.8735,-1.8744,-1.8675,-1.8676,-1.8677,0,-1.857,-1.8586,-1.8588,-1.8596,-1.8598,-1.8611,-1.8619,-1.8608,-1.8616,-1.8622,-1.8635,-1.8648,-1.8657,-1.868,-1.8677,-1.8688,-1.8682,-1.8708,-1.8684,-1.8686,-1.8682,-1.8681,-1.8682,-1.8713,-1.8713,-1.8714,-1.8714,0,-1.863,-1.8626,-1.8637,-1.8647,-1.8656,-1.8663,-1.8669,-1.8677,-1.8667,-1.8677,-1.8691,-1.8698,-1.8713,-1.8725,-1.8735,-1.8736,-1.8724,-1.8722,-1.8728,-1.8731,-1.8732,-1.8731,-1.8654,-1.872,-1.872,-1.8719,-1.8719,-1.8719,-1.8675,-1.8689,-1.8692,-1.8704,-1.8708,-1.8714,-1.8726,-1.8724,-1.8735,-1.8746,-1.874,-1.8756,-1.876,-1.8771,-1.8774,-1.8787,-1.8776,-1.8785,-1.8786,-1.8789,-1.8791,-1.8731,-1.8788,-1.8788,-1.8788,-1.8788,-1.8788,0,-1.8735,-1.8736,-1.8747,-1.8756,-1.8766,-1.8754,-1.876,-1.8769,-1.8783,-1.8787,-1.8797,-1.8813,-1.8825,-1.8823,-1.8834,-1.8845,-1.8839,-1.8848,-1.8847,-1.8847,-1.88,-1.8794,-1.8852,-1.8852,-1.8852,-1.8852,-1.8852,-1.8852,-1.8767,-1.8789,-1.8785,-1.8809,-1.881,-1.8826,-1.883,-1.8836,-1.8839,-1.8857,-1.8867,-1.8866,-1.8868,-1.8879,-1.889,-1.8889,-1.8893,-1.8904,-1.8901,-1.8857,-1.885,-1.8844,-1.8839,-1.8905,-1.8905,-1.8947,-1.8947,-1.8948]},{"header":{"parameterUnit":"m.s-1","parameterCategory":1,"la1":30.2991,"la2":30.254,"lo1":-89.0895,"lo2":-89.0444,"dy":0.0017,"dx":0.0017,"nx":28,"ny":28,"refTime":"2024-04-30T09:00:00:Z","depth":0,"parameterNumber":3,"parameterNumberName":"V-component_of_WINDS"},"data":[0,0,0,0,0,0,0,0,0,0,0,0,0,0,0,0,0,0,0,0,0,0,0,0,0,0,0,0,0,0,0,0,0,0,0,0,0,0,0,0,0,0,0,0,0,0,0,0,0,0,0,0,0,0,0,0,0,0,-0.0542,-0.0542,0,-0.0549,-0.0549,-0.0549,-0.0549,-0.0549,-0.0549,-0.0549,-0.0558,-0.0558,-0.0558,0,0,0,0,0,0,0,0,0,0,0,0,0,-0.0529,-0.0529,-0.0542,-0.0542,-0.0542,-0.0549,-0.0549,-0.0549,-0.0549,-0.0549,-0.0549,-0.0549,-0.0557,-0.0558,-0.0558,0,0,0,0,0,0,0,0,0,0,0,0,0,-0.0535,-0.0529,-0.0542,-0.0543,-0.0543,-0.0549,-0.0549,-0.055,-0.0549,-0.0549,-0.0549,-0.0549,-0.0557,-0.0558,-0.0558,-0.0564,0,0,-0.056,-0.056,0,0,0,0,0,0,0,0,-0.0535,-0.0535,-0.0543,-0.0543,-0.0543,-0.0548,-0.0548,-0.0554,-0.0549,-0.0547,-0.0549,-0.0549,-0.0555,-0.0555,-0.0557,-0.0565,-0.0565,-0.056,-0.056,-0.056,-0.056,0,0,0,0,0,0,0,-0.0534,-0.0535,-0.0545,-0.0543,-0.0543,-0.0543,-0.0544,-0.0549,-0.0552,-0.0547,-0.0547,-0.0548,-0.0555,-0.0557,-0.0557,-0.0565,-0.056,-0.056,-0.056,-0.0561,-0.0577,-0.0578,0,0,0,0,0,0,-0.0533,-0.0535,-0.0545,-0.0545,-0.0538,-0.0544,-0.0544,-0.0547,-0.0552,-0.0552,-0.0548,-0.0548,-0.0556,-0.0557,-0.0558,-0.0564,-0.056,-0.0561,-0.0561,-0.0577,-0.0577,-0.0578,0,0,0,0,0,0,-0.0533,-0.0534,-0.0544,-0.054,-0.0541,-0.0544,-0.0547,-0.0547,-0.0549,-0.0552,-0.0553,-0.055,-0.0556,-0.0557,-0.0562,-0.0565,-0.0561,-0.0561,-0.0577,-0.0577,-0.0578,-0.0579,0,0,0,0,0,0,-0.0533,-0.0534,-0.0536,-0.054,-0.0541,-0.0549,-0.0547,-0.0547,-0.055,-0.0549,-0.0554,-0.0554,-0.0556,-0.0562,-0.0563,-0.0565,-0.0562,-0.0577,-0.0577,-0.0577,-0.0578,-0.0579,-0.0579,0,0,0,0,0,-0.0532,-0.0537,-0.0537,-0.0538,-0.0544,-0.0549,-0.055,-0.0551,-0.055,-0.0552,-0.0554,-0.0554,-0.0564,-0.0562,-0.0564,-0.0566,-0.0577,-0.0577,-0.0577,-0.0578,-0.0579,-0.0579,0,0,0,0,0,0,-0.0534,-0.0537,-0.0537,-0.0543,-0.0546,-0.0549,-0.0552,-0.0552,-0.0555,-0.0555,-0.0557,-0.0558,-0.0563,-0.0565,-0.0563,-0.0572,-0.057,-0.0571,-0.057,-0.0571,-0.0571,-0.0571,-0.0562,0,0,0,0,0,-0.0535,-0.0538,-0.0541,-0.0546,-0.0547,-0.0549,-0.0552,-0.0552,-0.0555,-0.0557,-0.0559,-0.0562,-0.0566,-0.0569,-0.0573,-0.0579,-0.0579,-0.0581,-0.0582,-0.0582,-0.0582,-0.0585,-0.0586,-0.0579,-0.0579,-0.0579,0,0,-0.0537,-0.0539,-0.0541,-0.0546,-0.0549,-0.0552,-0.055,-0.0554,-0.0557,-0.0557,-0.0562,-0.0564,-0.0568,-0.0574,-0.0576,-0.0576,-0.0585,-0.0582,-0.0583,-0.0583,-0.0586,-0.0587,-0.0587,-0.0579,-0.0579,-0.0579,0,0,-0.0543,-0.0545,-0.0549,-0.0551,-0.0554,-0.0555,-0.0556,-0.056,-0.0561,-0.0566,-0.0566,-0.0569,-0.0576,-0.0578,-0.0581,-0.0586,-0.0587,-0.0588,-0.059,-0.0593,-0.0594,-0.0594,-0.0596,-0.0597,-0.0588,-0.0588,-0.0588,0,-0.0545,-0.055,-0.0551,-0.0555,-0.0557,-0.0557,-0.0561,-0.0563,-0.0567,-0.0569,-0.0568,-0.0576,-0.0578,-0.0584,-0.0586,-0.0587,-0.0588,-0.0587,-0.0593,-0.0594,-0.0594,-0.0596,-0.0597,-0.0588,-0.0588,-0.0588,-0.0588,0,-0.0553,-0.0556,-0.0559,-0.0563,-0.0565,-0.0569,-0.0571,-0.0573,-0.0573,-0.0575,-0.058,-0.0583,-0.0587,-0.0588,-0.0589,-0.0594,-0.0593,-0.0593,-0.0591,-0.0595,-0.0597,-0.0598,-0.0588,-0.0588,-0.0588,-0.0588,0,0,-0.056,-0.0564,-0.0565,-0.0566,-0.0569,-0.0572,-0.0576,-0.058,-0.0581,-0.0584,-0.0588,-0.0593,-0.0592,-0.0595,-0.0595,-0.0598,-0.0602,-0.0597,-0.0597,-0.0598,-0.0608,-0.0608,-0.0609,-0.0602,-0.0602,-0.0602,-0.0607,0,-0.0566,-0.0572,-0.0573,-0.0579,-0.0582,-0.0581,-0.0585,-0.0587,-0.0588,-0.0591,-0.0593,-0.0596,-0.0595,-0.0597,-0.0599,-0.0601,-0.0604,-0.0601,-0.0605,-0.0605,-0.0604,-0.061,-0.061,-0.0615,-0.0608,-0.0608,-0.0608,0,-0.0573,-0.0576,-0.0582,-0.0584,-0.0586,-0.0589,-0.0592,-0.0594,-0.0597,-0.0598,-0.06,-0.06,-0.0604,-0.0602,-0.0608,-0.0605,-0.0607,-0.0608,-0.0609,-0.0609,-0.0607,-0.061,-0.0616,-0.0617,-0.0609,-0.0609,-0.0609,0,-0.0578,-0.0583,-0.0587,-0.0588,-0.0591,-0.0593,-0.0594,-0.0597,-0.0599,-0.0602,-0.0603,-0.0606,-0.0608,-0.0611,-0.0612,-0.061,-0.0617,-0.0615,-0.0618,-0.0618,-0.0619,-0.0619,-0.0626,-0.062,-0.062,-0.062,-0.062,0,-0.0584,-0.0588,-0.0589,-0.0591,-0.0595,-0.0596,-0.06,-0.0601,-0.0603,-0.0606,-0.0606,-0.0609,-0.061,-0.0613,-0.0614,-0.0618,-0.0619,-0.062,-0.062,-0.062,-0.0619,-0.0621,-0.062,-0.0621,-0.0621,-0.0621,-0.0621,0,-0.059,-0.059,-0.0595,-0.0597,-0.0597,-0.06,-0.0602,-0.0605,-0.0606,-0.0609,-0.061,-0.0612,-0.0615,-0.0616,-0.0621,-0.0621,-0.0626,-0.0626,-0.0625,-0.0625,-0.0627,-0.0627,-0.0635,-0.0636,-0.063,-0.063,-0.063,0,-0.0593,-0.0596,-0.0598,-0.06,-0.0601,-0.0604,-0.0606,-0.0607,-0.0608,-0.0611,-0.0613,-0.0617,-0.0619,-0.0624,-0.0626,-0.0629,-0.0629,-0.0632,-0.063,-0.0629,-0.0629,-0.0629,-0.0629,-0.0632,-0.0632,-0.0632,-0.0632,0,-0.06,-0.06,-0.0603,-0.0605,-0.0607,-0.0609,-0.0611,-0.0613,-0.0614,-0.0616,-0.0619,-0.0621,-0.0625,-0.0628,-0.0631,-0.0633,-0.0633,-0.0633,-0.0634,-0.0633,-0.0633,-0.0633,-0.0626,-0.0633,-0.0633,-0.0633,-0.0633,-0.0633,-0.0605,-0.0607,-0.0609,-0.0611,-0.0613,-0.0615,-0.0617,-0.0618,-0.062,-0.0623,-0.0624,-0.0627,-0.0629,-0.0633,-0.0635,-0.0638,-0.0637,-0.0638,-0.0638,-0.0639,-0.0639,-0.0632,-0.0638,-0.0638,-0.0638,-0.0638,-0.0638,0,-0.0611,-0.0612,-0.0615,-0.0617,-0.0619,-0.0619,-0.0621,-0.0623,-0.0625,-0.0627,-0.063,-0.0633,-0.0636,-0.0638,-0.0641,-0.0642,-0.0642,-0.0643,-0.0643,-0.0643,-0.0639,-0.0638,-0.0643,-0.0643,-0.0643,-0.0643,-0.0643,-0.0643,-0.0615,-0.0618,-0.0619,-0.0623,-0.0624,-0.0627,-0.0628,-0.063,-0.0631,-0.0635,-0.0637,-0.0638,-0.064,-0.0643,-0.0645,-0.0646,-0.0647,-0.0648,-0.0648,-0.0644,-0.0644,-0.0643,-0.0642,-0.0648,-0.0648,-0.0652,-0.0652,-0.0652]}]]